This demonstration page uses our WeatherBlox Daily Observations layout. Learn more.

Left ArrowRight Arrow

Hourly Observations for September 26, 2022

Temp ( °F °C ) Dew Point ( °F °C ) Humidity (%) Winds ( mph kmh ) Pressure ( in mb ) Visibility ( mi km ) Precip ( " mm )
12:55 am 00:55 Clear 54 12.2 35 1.8 49 49 NW 8 13 30.14 1021 10 16 0.00 0.00
1:55 am 01:55 Clear 52 11 36 2.3 55 55 NW 2 4 30.14 1021 10 16 0.00 0.00
2:55 am 02:55 Clear 51 10.4 36 2.2 57 57 WNW 10 17 30.15 1021 10 16 0.00 0.00
3:55 am 03:55 Mostly Clear 51 10.6 35 1.9 55 55 NW 10 17 30.15 1021 10 16 0.00 0.00
4:55 am 04:55 Mostly Clear 50 9.8 36 2.4 60 60 NW 10 17 30.15 1021 10 16 0.00 0.00
5:55 am 05:55 Clear 47 8.6 37 2.8 67 67 NW 10 17 30.18 1022 10 16 0.00 0.00
7:55 am 07:55 Sunny 49 9.4 37 2.9 64 64 NW 8 13 30.21 1023 10 16 0.00 0.00
8:55 am 08:55 Sunny 52 10.9 38 3.4 60 60 NW 9 15 30.22 1023 10 16 0.00 0.00
9:55 am 09:55 Mostly Sunny 58 14.7 38 3.2 46 46 WNW 9 15 30.22 1023 10 16 0.00 0.00
10:55 am 10:55 Sunny 65 18.2 34 1.2 32 32 W 10 17 30.22 1023 10 16 0.00 0.00
11:55 am 11:55 Sunny 69 20.3 32 0.2 26 26 W 10 17 30.21 1023 10 16 0.00 0.00
12:55 pm 12:55 Sunny 70 21.3 32 -0.1 24 24 WNW 10 17 30.19 1023 10 16 0.00 0.00
1:55 pm 13:55 Sunny 72 22.4 32 0.2 23 23 NNW 12 19 30.16 1022 10 16 0.00 0.00
2:55 pm 14:55 Partly Cloudy 74 23.3 31 -0.3 21 21 NNW 5 7 30.14 1021 10 16 0.00 0.00
3:55 pm 15:55 Sunny 75 23.8 32 0.1 21 21 NW 12 19 30.13 1020 10 16 0.00 0.00
4:55 pm 16:55 Sunny 75 23.9 31 -0.4 20 20 WNW 8 13 30.11 1020 10 16 0.00 0.00
5:55 pm 17:55 Mostly Sunny 75 24.1 33 0.4 21 21 NW 6 9 30.11 1020 10 16 0.00 0.00
6:55 pm 18:55 Mostly Cloudy 73 22.7 34 1.1 24 24 WNW 5 7 30.11 1020 10 16 0.00 0.00
7:55 pm 19:55 Partly Cloudy 67 19.7 36 2.1 31 31 Calm 30.11 1020 10 16 0.00 0.00
8:55 pm 20:55 Mostly Clear 62 16.6 40 4.3 44 44 Calm 30.12 1020 10 16 0.00 0.00
9:55 pm 21:55 Partly Cloudy 59 15 41 4.9 51 51 Calm 30.12 1020 10 16 0.00 0.00
10:55 pm 22:55 Mostly Clear 56 13.3 43 5.9 61 61 Calm 30.12 1020 10 16 0.00 0.00
11:55 pm 23:55 Clear 56 13.1 43 6.2 63 63 Calm 30.11 1020 10 16 0.00 0.00

Powered by AerisWeather